Theta_e
316 316 320 320 319 320 319 319 321 321 323 322 320 319 317 314 313 312 313 315 317 318 319 320 321 323 324 324 323 324 324 324 324 325 324 325 325 325 324 324 321 321 318 316
317 316 318 320 320 319 318 319 319 320 321 318 319 316 316 316 314 313 313 313 316 318 322 321 321 321 322 322 325 325 325 322 321 323 322 324 325 323 322 320 318 316 314 315
319 319 321 320 319 318 319 319 319 320 319 318 318 317 316 315 313 314 312 313 316 320 323 320 320 319 319 318 320 322 319 315 316 317 318 318 318 317 315 313 313 312 310 309
318 319 323 319 318 318 319 320 320 318 316 315 316 317 314 313 314 313 312 312 313 319 320 318 318 316 314 316 319 316 314 314 314 313 312 310 311 310 309 308 308 307 306 306
320 319 318 319 319 320 321 321 319 319 317 314 312 314 314 315 310 312 313 314 317 320 319 317 316 314 314 313 313 313 311 310 310 311 309 308 306 306 306 306 305 304 303 302
318 319 318 316 316 317 318 321 318 316 317 315 314 315 313 313 313 312 313 318 316 315 314 314 313 315 314 312 312 310 310 309 309 309 308 306 306 304 303 303 302 301 300 300
319 321 317 315 317 317 324 319 317 317 317 317 314 314 312 314 316 316 318 318 316 314 313 312 312 313 312 311 310 310 309 308 307 306 306 305 304 303 302 300 299 299 297 296
315 318 321 317 319 320 317 316 318 317 316 317 314 312 313 313 316 317 317 316 315 313 311 311 311 311 310 310 309 308 306 305 304 304 303 302 302 301 300 299 297 294 292 289
317 316 315 317 319 318 317 317 317 317 316 317 316 315 314 315 317 316 316 314 313 312 310 310 310 311 306 306 306 305 305 303 302 301 301 301 300 298 297 297 294 289 287 285
317 317 318 318 318 318 318 317 316 315 316 314 316 315 316 313 313 312 311 311 310 310 308 306 308 307 306 305 305 304 301 300 300 300 299 298 298 297 295 293 290 287 285 283
317 316 317 316 315 315 316 317 315 315 316 316 315 316 316 313 311 310 308 308 309 307 304 303 304 304 303 303 303 300 298 297 296 296 295 292 291 290 290 289 291 289 287 285
311 312 315 313 313 315 317 317 314 316 316 315 315 315 312 310 309 308 307 304 300 298 298 297 299 299 300 301 302 299 292 290 288 287 285 285 284 282 283 285 286 286 285 285
311 310 311 313 312 314 315 312 314 312 312 314 314 310 308 306 303 297 295 294 292 291 290 290 290 290 292 293 293 290 287 285 284 284 284 283 283 282 282 281 282 282 282 282
307 306 312 314 315 313 313 310 306 303 301 304 306 304 302 295 292 290 289 288 287 286 286 286 285 285 286 287 287 285 284 284 284 284 284 284 284 283 283 283 282 282 281 280
302 301 308 309 309 309 309 307 301 298 295 294 293 293 291 289 287 286 285 284 284 284 284 284 284 284 285 285 286 286 287 286 285 284 283 283 282 282 282 281 281 281 280 279
300 304 304 304 302 301 302 299 295 293 290 288 286 285 284 283 283 283 283 283 283 283 282 282 282 283 286 287 285 283 282 282 282 281 280 280 279 279 279 278 278 278 278 277
299 301 297 300 295 293 293 292 290 289 287 286 285 283 283 282 281 280 280 279 279 279 279 279 279 282 282 282 281 280 279 279 278 278 277 277 276 276 276 276 276 275 275 274
295 294 292 292 292 290 288 286 286 285 285 283 282 281 281 280 280 279 278 277 277 277 277 278 278 279 279 279 278 278 277 276 276 275 275 275 275 275 274 274 274 273 273 272
289 289 288 288 287 287 286 284 283 282 281 280 280 279 278 278 277 277 276 276 275 275 275 275 276 276 276 276 276 275 275 275 274 274 274 274 273 273 272 272 271 271 270 270
285 284 284 284 283 283 282 281 281 280 280 279 278 278 277 276 276 275 275 274 274 273 274 274 274 274 274 274 274 273 273 273 272 272 272 271 271 270 270 269 269 269 268 268
283 282 282 282 281 281 280 280 279 279 278 278 277 277 277 276 275 275 274 273 272 272 273 273 273 273 273 272 272 271 271 270 270 269 269 268 268 268 267 267 267 266 266 266
282 282 281 281 280 280 280 279 279 278 277 277 277 276 275 274 273 272 272 271 271 271 271 271 271 271 270 270 270 269 269 268 268 267 267 266 266 265 265 265 265 265 265 264
281 281 280 280 279 279 278 278 277 276 276 275 275 275 275 275 273 272 271 270 270 270 269 269 269 268 268 268 268 267 267 266 266 265 265 264 264 264 263 263 263 262 262 262
281 280 280 279 279 278 278 277 276 275 275 274 274 274 273 271 270 270 269 269 269 268 268 267 267 267 266 266 266 265 265 264 264 264 263 263 262 262 262 261 261 260 260 260
278 279 279 279 278 277 277 276 275 274 274 273 272 272 271 271 270 269 269 268 268 267 267 266 266 265 265 265 264 264 264 263 263 262 262 261 261 260 260 260 259 259 259 258
276 276 275 275 276 276 275 274 273 272 272 271 270 269 269 269 269 268 268 267 266 265 265 264 264 264 264 263 263 263 262 262 261 261 260 260 260 259 259 259 258 258 258 257
274 274 274 273 272 272 271 271 270 269 268 268 268 267 268 267 267 266 266 265 265 264 264 263 263 262 262 262 262 262 261 261 261 260 260 259 259 258 258 258 258 257 257 257
Wind_Speed
12 13 5 3 3 1 5 13 13 11 16 12 10 10 8 8 7 7 9 6 11 13 10 9 17 22 26 28 34 36 36 33 32 33 29 33 34 34 35 34 36 37 33 29
8 10 12 16 10 7 5 9 5 4 9 7 12 6 5 9 8 8 10 9 9 6 7 8 14 16 19 22 31 34 34 28 29 25 22 23 25 27 27 30 31 28 26 23
4 5 4 8 9 17 6 6 6 5 7 6 8 10 9 10 9 10 12 13 12 14 14 12 14 15 16 18 23 28 25 22 21 18 19 22 24 23 23 22 22 21 20 20
2 4 5 4 10 18 14 15 14 7 8 8 11 14 8 7 9 11 11 13 12 11 7 15 15 15 17 20 21 20 19 20 22 23 24 24 23 23 21 20 21 21 19 17
3 4 4 1 4 6 7 14 10 11 12 8 8 4 5 5 9 11 12 11 6 11 15 18 16 17 19 19 18 18 18 19 22 25 24 23 22 21 19 18 17 17 18 18
3 4 5 5 13 6 1 5 5 6 6 3 4 2 6 6 5 8 7 5 11 19 19 18 18 21 21 17 17 15 18 19 21 21 21 20 20 19 20 21 22 23 21 19
4 4 7 8 5 6 4 6 10 6 8 6 2 8 6 3 5 6 5 11 19 19 17 19 23 23 17 17 14 17 17 17 16 16 18 18 19 19 21 22 24 25 23 18
3 3 6 4 1 5 4 3 2 6 6 8 8 11 8 7 6 9 11 13 16 17 17 20 24 23 17 14 16 17 19 19 18 17 16 18 19 20 22 24 25 22 22 20
6 5 5 4 2 2 2 2 4 0 3 4 8 5 5 6 6 4 9 10 17 18 18 19 23 24 21 21 24 22 20 19 17 16 16 16 21 21 19 18 20 20 20 20
3 5 9 7 3 6 7 6 5 4 2 6 6 6 2 5 4 5 7 10 17 18 14 13 18 20 24 27 26 25 25 23 21 19 18 17 16 15 17 18 20 21 20 20
4 7 6 6 8 7 10 8 4 4 3 3 8 4 1 2 6 6 7 11 14 15 17 16 19 20 23 27 29 28 26 25 24 22 21 19 17 15 16 13 17 21 18 18
7 9 6 7 8 7 4 3 4 2 5 4 4 2 3 4 5 6 7 15 18 19 21 19 23 22 23 26 31 33 28 23 24 26 24 26 27 26 21 17 13 11 10 10
7 17 7 10 7 4 4 3 3 5 5 3 5 1 9 7 7 20 19 19 19 20 21 25 27 25 20 22 26 26 27 23 24 23 22 22 21 21 19 15 14 12 9 6
10 17 7 1 3 1 7 8 11 10 13 10 9 12 12 15 18 20 20 21 24 27 28 27 31 29 23 24 29 30 31 28 27 24 21 17 15 14 12 10 8 6 5 7
16 17 16 4 10 9 8 8 12 11 9 13 17 14 17 16 16 21 26 27 30 31 29 29 31 27 28 31 34 31 28 22 19 17 16 16 14 12 9 8 7 6 5 6
17 12 11 12 10 12 11 12 12 10 11 12 14 16 23 28 28 28 28 26 28 24 26 29 29 26 26 25 25 25 24 21 19 17 15 14 12 11 10 9 8 7 5 2
12 8 12 10 11 12 14 11 12 10 11 14 16 22 25 28 29 29 28 29 32 31 29 30 27 26 25 24 25 24 22 21 19 18 17 15 13 11 9 8 8 7 5 4
5 5 7 10 8 9 12 13 12 14 14 20 23 26 26 25 19 24 26 29 34 34 32 30 28 28 26 24 24 22 22 20 19 18 16 15 13 11 10 9 7 6 5 5
8 10 12 13 11 11 13 14 17 22 22 24 27 25 28 28 27 27 29 30 27 26 24 28 29 29 27 24 23 22 21 20 19 17 16 14 12 12 11 10 9 9 8 7
11 15 19 17 18 18 14 20 23 24 24 28 29 29 27 26 28 30 31 30 25 21 24 26 28 27 24 21 20 20 20 19 18 17 16 15 14 13 12 11 10 10 9 9
12 13 13 17 18 22 23 23 26 25 25 28 29 27 26 26 25 24 25 22 21 25 24 24 23 22 20 19 20 20 20 19 18 17 17 15 14 13 13 11 10 9 10 10
11 11 16 21 22 23 25 27 29 29 29 30 29 29 30 28 29 30 26 23 20 23 24 24 22 20 20 19 19 19 19 17 16 15 14 14 13 12 12 12 11 10 7 6
17 18 21 23 23 25 29 29 28 29 28 26 26 25 24 21 19 19 17 18 23 24 25 23 20 19 18 18 18 18 17 17 16 14 13 12 12 12 12 11 10 10 11 13
19 20 22 23 26 27 21 24 28 28 29 28 27 24 24 25 26 25 26 25 23 23 23 20 19 18 18 18 17 17 15 14 13 11 11 11 11 11 10 10 12 13 16 18
19 20 20 21 20 18 22 21 24 24 24 24 24 24 23 20 23 20 23 21 19 20 20 17 16 15 15 14 13 13 12 11 10 10 11 11 10 10 10 12 15 17 19 18
18 17 19 20 18 18 18 18 20 19 19 21 22 23 24 24 23 22 20 19 18 17 17 15 14 12 11 11 11 10 10 10 10 11 11 10 10 11 13 16 18 20 19 18
18 17 17 18 20 19 19 19 20 17 18 20 21 20 22 21 20 20 18 17 16 15 14 12 11 10 9 9 9 9 9 9 9 10 10 10 11 14 18 20 19 18 17 17
Wind_Direction
226 217 128 280 268 282 261 240 211 212 226 226 231 244 232 256 225 202 224 191 187 196 195 198 207 210 214 212 208 201 201 203 211 218 223 223 223 221 221 225 224 228 224 227
236 205 198 216 237 244 252 272 236 249 227 223 230 238 225 236 208 210 229 203 198 205 169 194 191 185 191 195 196 196 197 190 201 203 206 217 223 217 216 215 213 214 217 220
243 175 84 282 223 247 239 276 288 257 218 252 253 236 236 240 205 212 217 218 177 199 193 188 174 171 174 173 185 184 183 181 191 193 203 208 209 207 206 199 198 194 190 187
239 101 220 237 207 223 224 245 238 244 266 250 237 244 237 228 217 220 209 221 193 192 162 162 157 152 152 163 173 171 171 174 179 185 186 185 182 183 180 177 175 172 171 169
284 226 301 324 236 200 172 247 220 227 248 260 254 258 294 236 213 221 198 206 166 154 146 146 154 149 144 137 148 157 157 162 171 178 173 171 170 169 168 163 158 156 158 156
120 274 221 239 227 204 327 287 240 206 251 333 50 186 247 239 212 209 178 133 133 134 138 145 156 154 145 142 147 146 159 166 176 179 175 170 170 166 162 163 152 152 150 152
173 227 288 253 282 96 244 250 18 317 276 298 191 218 256 191 198 166 141 129 135 137 145 151 154 154 147 150 149 154 162 168 170 174 175 175 168 166 158 143 149 147 142 141
130 190 251 199 262 165 199 280 95 300 322 307 255 276 276 248 199 160 130 123 129 128 133 145 153 154 146 146 155 155 149 151 160 163 164 165 162 156 155 154 147 141 138 129
161 220 257 286 108 182 109 220 206 297 288 264 273 269 306 291 129 106 121 123 122 124 127 144 158 161 137 143 149 154 154 149 143 142 145 154 151 148 144 151 149 141 143 141
63 226 226 217 212 198 191 192 265 252 290 312 294 291 287 82 15 105 120 121 128 125 120 124 156 154 152 153 155 149 135 135 135 131 131 135 142 152 155 160 157 154 154 153
221 271 292 264 246 223 203 216 202 260 189 255 296 325 292 104 108 98 78 94 113 114 113 106 130 132 145 150 150 135 135 137 136 137 134 126 120 130 143 152 176 171 174 175
260 234 206 248 241 228 234 221 204 148 322 48 351 353 112 93 95 106 101 98 89 91 96 99 111 124 141 153 154 147 133 132 132 131 126 123 115 98 92 106 120 130 139 161
306 318 250 252 288 233 205 115 16 45 36 12 69 35 94 55 61 90 84 84 85 91 92 94 95 96 115 134 141 130 115 113 111 110 111 113 113 113 108 94 99 104 112 122
326 331 277 207 257 169 105 91 81 57 37 42 50 63 80 105 83 76 80 82 88 87 81 81 80 74 90 113 116 106 104 105 104 104 105 103 105 111 118 123 123 118 127 142
343 328 295 322 46 38 44 53 59 57 46 54 61 77 84 86 81 81 82 86 83 79 76 79 77 74 90 96 96 94 96 100 105 106 105 107 109 108 109 111 113 118 131 167
330 317 337 41 40 43 51 52 76 71 64 65 71 73 82 87 84 79 76 78 83 78 75 75 74 86 95 98 99 97 96 101 103 100 94 88 83 80 76 72 67 63 67 82
347 344 342 22 38 40 52 61 70 80 84 84 86 88 86 86 81 77 76 77 78 76 75 78 77 88 90 93 95 92 90 87 87 84 78 74 69 64 58 55 58 64 58 40
344 17 32 45 55 67 65 66 71 75 79 87 90 90 87 85 88 86 81 80 77 71 71 81 88 89 88 89 90 90 86 82 77 74 69 64 61 62 61 59 50 47 43 36
45 54 50 58 64 77 80 79 78 82 85 90 89 85 87 85 85 84 84 76 72 71 62 79 83 82 81 83 85 85 84 82 79 73 67 67 64 58 57 57 53 41 25 19
65 70 76 74 74 81 85 85 89 86 88 91 91 86 82 82 86 85 81 74 70 78 86 84 82 79 82 83 85 85 83 80 78 73 70 68 63 57 50 41 30 26 20 7
60 67 75 76 74 74 77 85 88 83 82 85 88 88 87 85 83 84 80 77 68 81 82 82 80 83 84 82 79 78 75 74 72 70 68 65 61 55 48 41 32 15 359 352
67 72 75 78 77 74 75 80 84 86 86 87 88 90 88 85 84 79 78 86 86 87 84 82 80 79 79 76 74 73 72 71 70 68 63 58 50 40 30 18 9 3 2 356
72 76 80 80 80 81 77 74 75 79 80 80 81 83 86 88 92 94 88 82 88 89 86 81 75 71 69 69 70 69 70 69 67 62 56 46 36 26 18 15 10 359 348 337
75 75 77 81 83 80 78 76 79 78 79 78 78 85 92 92 84 88 97 96 93 88 81 75 70 67 68 71 71 70 67 63 59 53 44 32 23 15 9 3 355 349 341 333
63 66 74 79 81 82 85 86 83 80 80 79 78 79 84 89 97 96 98 94 89 85 82 74 69 66 66 65 63 60 59 56 47 34 21 11 10 10 3 354 346 340 337 334
67 66 65 65 75 81 84 87 84 82 86 82 74 82 93 99 101 99 95 92 87 82 75 65 58 56 56 58 61 64 57 45 30 21 20 23 12 356 349 344 339 336 333 328
62 67 69 66 62 70 78 81 84 80 86 92 87 87 99 99 97 94 89 84 78 71 66 62 60 55 57 67 67 56 40 25 18 13 7 2 357 347 339 336 335 334 332 329